Flag Weather past 2 weeks in Playa del Carmen, Quintana Roo, Mexico

Now
77 °F

Scattered clouds.


Feels Like: 78 °F
Forecast: N/A
Wind: 14 mph from Northeast

Location: Cozumel Civ / Mil

Current Time: Nov 20, 2014 at 4:03:28 PM

Latest Report: Nov 20, 2014 at 2:43 PM


Visibility: 8 mi

Pressure: 30.01 "Hg

Humidity: 83%

Dew point: 72 °F

Location of Playa del CarmenLocation

Historic Weather in Playa del Carmen — Graph

°F

Playa del Carmen temperature yesterday

Maximum temperature yesterday: 72 °F (at 9:46 AM)
Minimum temperature yesterday: 68 °F (at 1:37 AM)
Average temperature yesterday: 70 °F

Past Weeks' High & Low Weather Summary

 TemperatureHumidityPressure
High82 °F (Nov 17, 10:40 AM)100% (Nov 6, 12:41 AM)30.21 "Hg (Nov 6, 12:41 AM)
Low57 °F (Nov 11, 3:51 AM)61% (Nov 10, 12:40 PM)29.84 "Hg (Nov 8, 3:42 PM)
Average72 °F89%30.00 "Hg
* Reported Nov 5 2:42 PM — Nov 20 2:43 PM, Playa del Carmen, Weather by CustomWeather, © 2014

Note: Actual official high and low records may vary slightly from our data, if they occured in-between our weather recording intervals... More about our weather records

Advertising

Playa del Carmen weather history for previous 24 hours

 ConditionsComfort  
Time TempWeatherWind HumidityBarometerVisibility
2:43 PM
Nov 20
77 °FScattered clouds.14 mph83%30.01 "Hg8 mi
1:40 PM77 °FScattered clouds.9 mph83%30.00 "Hg8 mi
12:45 PM75 °FPartly sunny.14 mph89%30.02 "Hg8 mi
11:40 AM77 °FPartly sunny.13 mph83%30.04 "Hg8 mi
10:41 AM75 °FScattered clouds.9 mph89%30.09 "Hg8 mi
9:41 AM75 °FScattered clouds.16 mph89%30.10 "Hg8 mi
8:41 AM73 °FScattered clouds.16 mph89%30.12 "Hg8 mi
7:43 AM70 °FBroken clouds.9 mph94%30.08 "Hg7 mi
6:47 AM70 °FScattered clouds.12 mph88%30.07 "Hg7 mi
5:48 AM70 °FPassing clouds.8 mph88%30.03 "Hg7 mi
5:11 AM70 °FPassing clouds.9 mph94%30.06 "Hg7 mi
3:45 AM70 °FPassing clouds.13 mph88%30.05 "Hg7 mi
1:46 AM72 °FPassing clouds.9 mph83%30.08 "Hg7 mi
12:40 AM72 °FPassing clouds.8 mph83%30.11 "Hg7 mi
11:44 PM
Nov 19
72 °FPassing clouds.13 mph83%30.09 "Hg7 mi
10:42 PM72 °FPartly cloudy.14 mph78%30.13 "Hg7 mi
9:40 PM70 °FPassing clouds.10 mph88%30.13 "Hg7 mi
8:46 PM72 °FPassing clouds.14 mph78%30.14 "Hg6 mi
5:41 PM72 °FMostly cloudy.15 mph83%30.07 "Hg6 mi
4:47 PM72 °FMostly cloudy.12 mph83%30.08 "Hg6 mi
Weather by CustomWeather, © 2014

See weather overviewHow to use our weather pages